This is the latest recevied weather packets stored in our database for station/object WE0DX-1. If no packets are shown the sender has not sent any weather packets the latest 1 day(s).
| Time | Temp. | Humidity | Pressure | Rain* | Wind** | Luminosity | Snow |
|---|---|---|---|---|---|---|---|
| 1778081253 | 12.22° C | 39% | 1018.2 hPa | 0 mm | - | 420 W/m² | - |
| 1778080950 | 12.22° C | 40% | 1018.1 hPa | 0 mm | - | 429 W/m² | - |
| 1778080345 | 12.22° C | 40% | 1018.3 hPa | 0 mm | - | 561 W/m² | - |
| 1778079739 | 12.22° C | 45% | 1018.3 hPa | 0 mm | - | 492 W/m² | - |
| 1778078830 | 11.67° C | 47% | 1018.5 hPa | 0 mm | - | 438 W/m² | - |
| 1778077318 | 11.11° C | 57% | 1018 hPa | 0 mm | - | 304 W/m² | - |
| 1778076108 | 10.56° C | 58% | 1017.7 hPa | 0 mm | - | 208 W/m² | - |
| 1778075501 | 10° C | 61% | 1017.6 hPa | 0 mm | - | 144 W/m² | - |
| 1778074591 | 9.44° C | 62% | 1017.7 hPa | 0 mm | - | 115 W/m² | - |
| 1778073682 | 9.44° C | 65% | 1017.4 hPa | 0 mm | - | 108 W/m² | - |
| 1778071866 | 8.89° C | 72% | 1017.1 hPa | 0 mm | - | 73 W/m² | - |
| 1778070657 | 8.33° C | 85% | 1016.8 hPa | 0 mm | - | 45 W/m² | - |
| 1778069749 | 7.78° C | 90% | 1016.4 hPa | 0 mm | - | 29 W/m² | - |
| 1778069444 | 7.78° C | 89% | 1016 hPa | 0 mm | - | 25 W/m² | - |
| 1778068236 | 6.67° C | 91% | 1015.6 hPa | 0 mm | - | 16 W/m² | - |
| 1778067026 | 6.67° C | 95% | 1015.4 hPa | 0 mm | - | 4 W/m² | - |
| 1778066118 | 7.22° C | 95% | 1015.7 hPa | 0 mm | - | 0 W/m² | - |
| 1778065209 | 7.22° C | 92% | 1015.7 hPa | 0 mm | - | 0 W/m² | - |
| 1778064905 | 7.22° C | 91% | 1015.7 hPa | 0 mm | - | 0 W/m² | - |
| 1778063695 | 7.22° C | 91% | 1015.5 hPa | 0 mm | - | 0 W/m² | - |
| 1778063392 | 7.22° C | 90% | 1015.8 hPa | 0 mm | - | 0 W/m² | - |
| 1778063090 | 7.22° C | 91% | 1015.7 hPa | 0 mm | - | 0 W/m² | - |
| 1778062787 | 7.22° C | 92% | 1015.8 hPa | 0 mm | - | 0 W/m² | - |
| 1778062181 | 7.22° C | 92% | 1015.4 hPa | 0 mm | - | 0 W/m² | - |
| 1778061577 | 7.22° C | 94% | 1015 hPa | 0 mm | - | 0 W/m² | - |
* Rain latest hour (hover to see other rain measurements)
** Current wind speed in m/s (hover to see current wind gust speed)